DW7013 Weather Reports


time (UTC)temp
C
wind
direction
speed
KPH
gust
KPH
rain 1hr
cm
rain 24hr
cm
rain mn
cm
humidity
%
barometer
mb
20190425041218 5 155 0.0 0.0 0.00 0.46 0.00 90 1009.2
20190425040716 5 124 0.0 0.0 0.00 0.46 0.00 91 1009.2
20190425040218 5 63 0.0 0.0 0.00 0.46 0.00 91 1009.2
20190425035712 5 255 0.0 0.0 0.00 0.46 0.00 91 1009.1
20190425035215 5 261 0.0 0.0 0.00 0.46 0.00 91 1008.9
20190425034719 5 204 0.0 0.0 0.00 0.46 0.00 91 1008.8
20190425034217 5 206 0.0 0.0 0.00 0.46 0.00 91 1008.8
20190425033715 5 96 0.0 0.0 0.00 0.46 0.00 91 1008.8
20190425033218 5 42 0.0 0.0 0.00 0.46 0.00 91 1008.9
20190425032716 5 42 0.0 0.0 0.00 0.46 0.00 91 1008.9
20190425032213 5 42 0.0 0.0 0.00 0.46 0.00 91 1008.9
20190425031709 5 42 0.0 0.0 0.00 0.46 0.00 91 1009.0
20190425031216 5 147 0.0 0.0 0.00 0.46 0.00 91 1009.1
20190425030708 5 147 0.0 0.0 0.00 0.46 0.00 91 1009.2
20190425030218 5 322 0.0 0.0 0.00 0.46 0.00 91 1009.2
20190425025712 5 339 0.0 0.0 0.00 0.46 0.00 91 1009.3
20190425025207 5 339 0.0 0.0 0.00 0.46 0.00 90 1009.2
20190425024712 5 339 0.0 0.0 0.00 0.46 0.00 90 1009.2
20190425024216 5 121 0.0 0.0 0.00 0.46 0.00 90 1009.1
20190425023706 5 121 0.0 0.0 0.00 0.46 0.00 90 1009.1
20190425023219 5 121 0.0 0.0 0.00 0.46 0.00 90 1009.1
20190425022718 5 121 0.0 0.0 0.00 0.46 0.00 90 1009.1
20190425022218 5 121 0.0 0.0 0.00 0.46 0.00 90 1009.2
20190425021716 5 121 0.0 0.0 0.00 0.46 0.00 91 1009.3
20190425021219 5 121 0.0 0.0 0.00 0.46 0.00 91 1009.2
20190425020716 5 121 0.0 12.9 0.00 0.46 0.00 91 1009.3
20190425020212 5 0 1.6 12.9 0.00 0.46 0.00 91 1009.3
20190425015716 5 0 1.6 12.9 0.00 0.46 0.00 91 1009.3
20190425015219 5 344 0.0 0.0 0.00 0.46 0.00 91 1009.3
20190425014719 4 53 0.0 6.4 0.00 0.46 0.00 91 1009.1
20190425014209 5 53 0.0 6.4 0.00 0.46 0.00 91 1009.1
20190425013711 4 53 0.0 6.4 0.00 0.46 0.00 91 1009.1
20190425013212 4 271 0.0 0.0 0.00 0.46 0.00 91 1009.1
20190425012709 4 271 0.0 0.0 0.00 0.46 0.00 91 1009.1
20190425012217 4 271 0.0 0.0 0.00 0.46 0.00 91 1009.1
20190425011708 4 355 0.0 0.0 0.00 0.46 0.00 91 1009.1
20190425011216 5 355 0.0 0.0 0.00 0.46 0.00 92 1009.1
20190425010725 4 355 0.0 0.0 0.00 0.46 0.00 92 1009.0
20190425010243 4 355 0.0 0.0 0.00 0.46 0.00 92 1009.1
20190425005716 4 316 0.0 0.0 0.00 0.46 0.00 92 1009.0
20190425005214 5 316 0.0 6.4 0.00 0.46 0.00 92 1009.2
20190425004707 5 316 0.0 9.7 0.00 0.46 0.00 92 1009.0
20190425004213 5 316 1.6 9.7 0.00 0.46 0.00 93 1009.1
20190425003708 4 34 0.0 4.8 0.00 0.46 0.00 93 1009.1
20190425003214 4 157 0.0 4.8 0.00 0.46 0.00 93 1009.0
20190425002715 4 157 0.0 4.8 0.00 0.46 0.00 93 1009.0
20190425002215 4 350 0.0 0.0 0.00 0.46 0.00 93 1009.0
20190425001717 4 330 0.0 0.0 0.00 0.46 0.00 93 1009.1
20190425001211 4 330 0.0 0.0 0.00 0.46 0.00 93 1009.2
20190425000717 4 330 0.0 0.0 0.00 0.46 0.00 93 1009.2
20190425000220 4 330 0.0 0.0 0.00 0.46 0.00 93 1009.3
20190424235711 4 327 0.0 6.4 0.00 0.46 0.00 93 1009.2
20190424235220 4 327 1.6 6.4 0.00 0.46 0.00 93 1009.3
20190424234708 4 326 1.6 6.4 0.00 0.46 0.00 93 1009.3
20190424234218 4 332 0.0 0.0 0.00 0.46 0.00 93 1009.2
20190424233717 4 130 0.0 0.0 0.00 0.46 0.00 93 1009.3
20190424233218 4 130 0.0 0.0 0.00 0.46 0.00 93 1009.4
20190424232721 4 130 0.0 8.0 0.00 0.46 0.00 93 1009.4
20190424232216 4 130 1.6 8.0 0.00 0.46 0.00 93 1009.3
20190424231716 4 41 1.6 8.0 0.00 0.46 0.00 93 1009.2
20190424231208 4 323 0.0 0.0 0.00 0.46 0.00 93 1009.2
20190424230716 4 308 0.0 0.0 0.00 0.46 0.00 93 1009.2
20190424230209 4 308 0.0 0.0 0.00 0.46 0.00 93 1009.3
20190424225718 4 308 0.0 0.0 0.00 0.46 0.00 93 1009.2
20190424225217 4 308 0.0 0.0 0.00 0.46 0.00 93 1009.2
20190424224708 4 308 0.0 0.0 0.00 0.46 0.00 93 1009.2
20190424224214 4 308 0.0 0.0 0.00 0.46 0.00 93 1009.2
20190424223715 4 308 0.0 0.0 0.00 0.46 0.00 93 1009.2
20190424223218 4 307 0.0 0.0 0.00 0.46 0.00 93 1009.1
20190424222712 4 308 0.0 12.9 0.00 0.46 0.00 93 1009.1
20190424222213 4 307 0.0 14.5 0.00 0.46 0.00 93 1009.0
20190424221710 4 307 3.2 14.5 0.00 0.46 0.00 94 1009.0
20190424221207 4 351 4.8 14.5 0.00 0.46 0.00 94 1009.0
20190424220712 4 347 1.6 0.0 0.00 0.46 0.00 93 1009.0
20190424220219 4 241 0.0 0.0 0.00 0.46 0.46 93 1009.1
20190424215712 4 142 0.0 0.0 0.00 0.46 0.46 93 1009.1
20190424215221 4 338 0.0 0.0 0.00 0.46 0.46 93 1009.0
20190424214713 4 338 0.0 0.0 0.00 0.46 0.46 93 1009.1
20190424214221 4 338 0.0 0.0 0.00 0.46 0.46 93 1009.1
20190424213713 4 338 0.0 9.7 0.03 0.46 0.46 93 1009.0
20190424213211 4 338 1.6 9.7 0.03 0.46 0.46 93 1009.0
20190424212714 4 338 1.6 9.7 0.03 0.46 0.46 93 1009.0
20190424212212 4 347 0.0 8.0 0.03 0.46 0.46 94 1009.0
20190424211710 4 51 0.0 8.0 0.03 0.46 0.46 94 1009.0
20190424211209 4 51 0.0 6.4 0.03 0.46 0.46 94 1008.9
20190424210707 4 203 1.6 6.4 0.03 0.46 0.46 94 1009.0
20190424210216 4 321 1.6 6.4 0.03 0.46 0.46 94 1009.0
20190424205720 4 302 0.0 6.4 0.03 0.46 0.46 94 1009.1
20190424205208 4 338 0.0 6.4 0.03 0.46 0.46 94 1009.1
20190424204706 4 54 0.0 6.4 0.03 0.46 0.46 94 1009.2
20190424204216 4 288 0.0 11.3 0.03 0.46 0.46 94 1009.2
20190424203713 4 332 1.6 11.3 0.00 0.43 0.43 94 1009.3
20190424203211 4 5 1.6 11.3 0.00 0.43 0.43 94 1009.3
20190424202716 4 323 0.0 0.0 0.00 0.43 0.43 94 1009.4
20190424202207 4 20 0.0 0.0 0.00 0.43 0.43 94 1009.3
20190424201715 4 14 0.0 11.3 0.00 0.43 0.43 94 1009.3
20190424201210 4 14 0.0 11.3 0.00 0.43 0.43 94 1009.3
20190424200708 4 14 0.0 11.3 0.00 0.43 0.43 93 1009.1
20190424200214 4 322 0.0 0.0 0.00 0.43 0.43 93 1009.2
20190424195722 5 33 0.0 0.0 0.00 0.43 0.43 93 1009.3
20190424195209 5 5 0.0 0.0 0.00 0.43 0.43 93 1009.1
20190424194713 5 323 0.0 0.0 0.00 0.43 0.43 93 1009.3
20190424194218 5 323 0.0 0.0 0.00 0.43 0.43 93 1009.3
20190424193712 5 323 0.0 0.0 0.00 0.43 0.43 93 1009.3
20190424193220 5 323 0.0 0.0 0.00 0.43 0.43 93 1009.2
20190424192723 5 323 0.0 0.0 0.00 0.43 0.43 93 1009.1
20190424192209 5 323 0.0 0.0 0.00 0.43 0.43 92 1009.0
20190424191719 5 323 0.0 0.0 0.00 0.43 0.43 92 1008.8
20190424191215 5 323 0.0 0.0 0.00 0.43 0.43 92 1008.6
20190424190717 5 351 0.0 0.0 0.00 0.43 0.43 92 1008.5
20190424190212 5 327 0.0 0.0 0.00 0.43 0.43 92 1008.5
20190424185719 5 327 0.0 0.0 0.03 0.43 0.43 92 1008.5
20190424185208 5 327 0.0 0.0 0.05 0.43 0.43 92 1008.4
20190424184709 5 327 0.0 0.0 0.05 0.43 0.43 91 1008.5
20190424184219 5 327 0.0 0.0 0.05 0.43 0.43 91 1008.5
20190424183711 5 251 0.0 0.0 0.05 0.43 0.43 90 1008.5
20190424183219 5 347 0.0 0.0 0.05 0.43 0.43 91 1008.6
20190424182707 5 347 0.0 0.0 0.05 0.43 0.43 90 1008.6
20190424182221 5 144 0.0 0.0 0.08 0.43 0.43 90 1008.6
20190424181716 6 144 0.0 0.0 0.08 0.43 0.43 90 1008.5
20190424181212 6 144 0.0 11.3 0.10 0.43 0.43 90 1008.5
20190424180716 6 144 1.6 12.9 0.15 0.43 0.43 89 1008.6
20190424180207 6 144 3.2 12.9 0.15 0.43 0.43 89 1008.9
20190424175715 6 140 4.8 9.7 0.15 0.43 0.43 89 1008.2
20190424175219 6 119 3.2 12.9 0.15 0.41 0.41 88 1009.3
20190424174713 6 170 1.6 12.9 0.15 0.41 0.41 88 1009.2
20190424174218 6 138 1.6 12.9 0.15 0.41 0.41 88 1009.2
20190424173714 6 11 1.6 49.9 0.18 0.38 0.38 88 1009.3
20190424173209 6 105 4.8 49.9 0.20 0.38 0.38 88 1009.7
20190424172708 6 159 4.8 49.9 0.23 0.38 0.38 88 1009.5
20190424172210 6 146 1.6 14.5 0.23 0.36 0.36 88 1010.1
20190424171717 6 163 4.8 14.5 0.30 0.36 0.33 87 1010.0
20190424171218 6 112 6.4 14.5 0.28 0.33 0.33 87 1010.3
20190424170718 6 119 3.2 22.5 0.23 0.28 0.28 86 1009.9
20190424170210 6 148 4.8 25.7 0.23 0.28 0.28 86 1010.2
20190424165716 6 172 6.4 25.7 0.23 0.28 0.28 85 1009.8
20190424165215 6 42 6.4 25.7 0.23 0.25 0.25 85 1009.5
20190424164717 6 0 8.0 27.4 0.20 0.23 0.23 85 1009.7
20190424164216 6 344 12.9 27.4 0.18 0.23 0.23 85 1009.8
20190424163721 6 85 9.7 27.4 0.15 0.20 0.20 85 1009.7
20190424163207 6 344 6.4 25.7 0.15 0.18 0.15 85 1009.4
20190424162718 7 35 8.0 22.5 0.10 0.13 0.10 84 1009.4
20190424162210 7 73 6.4 20.9 0.05 0.05 0.10 84 1009.4
20190424161711 7 132 8.0 20.9 0.03 0.05 0.05 84 1009.4
20190424161216 7 60 6.4 20.9 0.03 0.05 0.05 84 1009.0
20190424160718 8 34 3.2 24.1 0.05 0.05 0.05 84 1008.9
20190424160221 8 273 8.0 30.6 0.05 0.05 0.05 84 1008.2
20190424155715 8 43 11.3 30.6 0.05 0.05 0.05 84 1008.2
20190424155213 8 159 9.7 38.6 0.05 0.05 0.05 84 1007.7
20190424154715 8 41 12.9 38.6 0.05 0.05 0.05 83 1007.7
20190424154209 8 82 12.9 38.6 0.05 0.05 0.05 82 1007.3
20190424153711 8 51 12.9 30.6 0.03 0.03 0.03 81 1007.4
20190424153217 9 336 12.9 29.0 0.03 0.03 0.03 81 1007.4
20190424152708 9 57 9.7 29.0 0.03 0.03 0.03 81 1006.9
20190424152224 10 298 4.8 25.7 0.03 0.03 0.03 81 1006.7
20190424151710 10 224 4.8 19.3 0.03 0.03 0.03 80 1006.3
20190424151357 11 240 6.4 32.2 0.03 0.03 0.03 79 1005.9
20190424150715 11 5 9.7 32.2 0.00 0.00 0.00 78 1005.4
20190424150219 12 331 12.9 37.0 0.00 0.00 0.00 75 1005.6
20190424145719 12 306 12.9 37.0 0.00 0.00 0.00 73 1005.3
20190424145220 13 348 14.5 37.0 0.00 0.00 0.00 68 1005.1
20190424144708 15 23 11.3 45.1 0.00 0.00 0.00 63 1005.1
20190424144214 16 275 14.5 45.1 0.00 0.00 0.00 57 1003.8
20190424143718 19 346 9.7 30.6 0.00 0.00 0.00 49 1003.3
20190424143218 20 160 4.8 22.5 0.00 0.00 0.00 36 1002.4
20190424142734 20 179 6.4 22.5 0.00 0.00 0.00 36 1002.2
20190424142209 21 156 6.4 24.1 0.00 0.00 0.00 37 1002.2
20190424141724 20 121 6.4 24.1 0.00 0.00 0.00 37 1002.0
20190424141214 21 196 4.8 24.1 0.00 0.00 0.00 37 1002.2
20190424140718 21 184 4.8 20.9 0.00 0.00 0.00 36 1002.2
20190424140211 21 232 6.4 20.9 0.00 0.00 0.00 38 1002.2
20190424135721 21 194 8.0 20.9 0.00 0.00 0.00 36 1002.4
20190424135220 21 240 8.0 20.9 0.00 0.00 0.00 38 1002.2
20190424134721 21 169 8.0 20.9 0.00 0.00 0.00 40 1002.3
20190424134221 21 126 9.7 20.9 0.00 0.00 0.00 41 1002.3
20190424133709 21 119 8.0 22.5 0.00 0.00 0.00 42 1002.3
20190424133245 20 113 8.0 22.5 0.00 0.00 0.00 43 1002.2
20190424132721 20 149 9.7 25.7 0.00 0.00 0.00 43 1002.2
20190424132210 20 167 11.3 25.7 0.00 0.00 0.00 42 1002.1
20190424131708 20 128 9.7 25.7 0.00 0.00 0.00 41 1002.2
20190424131220 20 160 8.0 22.5 0.00 0.00 0.00 42 1002.2
20190424130709 20 150 8.0 22.5 0.00 0.00 0.00 41 1002.2
20190424130223 20 150 8.0 22.5 0.00 0.00 0.00 40 1002.3
20190424125714 21 158 8.0 20.9 0.00 0.00 0.00 39 1002.4
20190424125216 21 109 9.7 20.9 0.00 0.00 0.00 38 1002.3
20190424124712 21 167 9.7 20.9 0.00 0.00 0.00 38 1002.4
20190424124210 21 153 6.4 16.1 0.00 0.00 0.00 37 1002.3
20190424123710 21 157 6.4 25.7 0.00 0.00 0.00 37 1002.2
20190424123208 21 171 8.0 25.7 0.00 0.00 0.00 38 1002.2
20190424122721 21 155 6.4 25.7 0.00 0.00 0.00 39 1002.3
20190424122217 21 198 4.8 19.3 0.00 0.00 0.00 38 1002.2
20190424121756 21 161 6.4 22.5 0.00 0.00 0.00 38 1002.1
20190424121217 21 129 8.0 24.1 0.00 0.00 0.00 37 1002.3
20190424120718 21 198 9.7 25.7 0.00 0.00 0.00 38 1002.3
20190424120208 21 167 9.7 25.7 0.00 0.00 0.00 36 1002.4
20190424115715 21 146 11.3 25.7 0.00 0.00 0.00 39 1002.3
20190424115212 21 180 9.7 22.5 0.00 0.00 0.00 37 1002.5
20190424114711 21 206 9.7 22.5 0.00 0.00 0.00 39 1002.5
20190424114217 21 197 8.0 22.5 0.00 0.00 0.00 38 1002.5
20190424113710 21 188 8.0 17.7 0.00 0.00 0.00 37 1002.5
20190424113211 21 146 8.0 17.7 0.00 0.00 0.00 39 1002.5
20190424112715 21 160 6.4 17.7 0.00 0.00 0.00 38 1002.5
20190424112215 20 149 4.8 17.7 0.00 0.00 0.00 38 1002.6
20190424111721 20 178 6.4 17.7 0.00 0.00 0.00 37 1002.6
20190424111213 20 159 4.8 19.3 0.00 0.00 0.00 36 1002.6
20190424110750 20 140 4.8 19.3 0.00 0.00 0.00 37 1002.6
20190424110217 20 165 8.0 19.3 0.00 0.00 0.00 39 1002.7
20190424105712 20 167 8.0 16.1 0.00 0.00 0.00 38 1002.8
20190424105245 21 153 6.4 19.3 0.00 0.00 0.00 38 1003.1
20190424104709 20 205 6.4 22.5 0.00 0.00 0.00 41 1003.2
20190424104238 21 163 9.7 22.5 0.00 0.00 0.00 39 1003.2
20190424103246 20 171 6.4 24.1 0.00 0.00 0.00 42 1003.2
20190424102731 20 203 8.0 24.1 0.00 0.00 0.00 42 1003.1
20190424102210 20 202 6.4 25.7 0.00 0.00 0.00 41 1003.1
20190424101721 20 171 6.4 25.7 0.00 0.00 0.00 43 1003.1
20190424101221 20 111 9.7 25.7 0.00 0.00 0.00 41 1003.1
20190424100709 20 159 8.0 25.7 0.00 0.00 0.00 42 1002.9
20190424100210 20 171 6.4 20.9 0.00 0.00 0.00 40 1003.1
20190424095721 20 151 8.0 20.9 0.00 0.00 0.00 43 1003.1
20190424095212 20 89 8.0 20.9 0.00 0.00 0.00 42 1003.2
20190424094706 20 172 6.4 17.7 0.00 0.00 0.00 43 1003.3
20190424094214 20 169 4.8 20.9 0.00 0.00 0.00 44 1003.3
20190424093707 20 130 3.2 20.9 0.00 0.00 0.00 44 1003.3
20190424093217 20 169 3.2 12.9 0.00 0.00 0.00 44 1003.2
20190424092721 19 189 1.6 8.0 0.00 0.00 0.00 43 1003.1
20190424092211 19 151 3.2 11.3 0.00 0.00 0.00 47 1003.2
20190424091711 19 271 3.2 11.3 0.00 0.00 0.00 46 1003.2
20190424091209 18 178 3.2 11.3 0.00 0.00 0.00 45 1003.2
20190424090717 19 235 1.6 9.7 0.00 0.00 0.00 46 1003.1
20190424090218 19 229 3.2 12.9 0.00 0.00 0.00 46 1003.1
20190424085716 18 209 3.2 12.9 0.00 0.00 0.00 46 1003.1
20190424085213 18 192 3.2 12.9 0.00 0.00 0.00 48 1003.1
20190424084721 18 158 1.6 9.7 0.00 0.00 0.00 50 1003.1
20190424084213 18 209 3.2 9.7 0.00 0.00 0.00 52 1003.1
20190424083714 18 182 3.2 9.7 0.00 0.00 0.00 51 1003.1
20190424083208 17 170 3.2 9.7 0.00 0.00 0.00 53 1003.1
20190424082711 17 167 1.6 6.4 0.00 0.00 0.00 54 1003.2
20190424082215 17 168 1.6 4.8 0.00 0.00 0.00 54 1003.3
20190424081723 17 158 0.0 1.6 0.00 0.00 0.00 56 1003.3
20190424081218 16 179 0.0 0.0 0.00 0.00 0.00 55 1003.3
20190424080718 16 178 0.0 0.0 0.00 0.00 0.00 56 1003.3
20190424080219 16 179 0.0 0.0 0.00 0.00 0.00 59 1003.3
20190424075714 16 179 0.0 0.0 0.00 0.00 0.00 59 1003.3
20190424075208 15 179 0.0 0.0 0.00 0.00 0.00 60 1003.4
20190424074721 15 179 0.0 0.0 0.00 0.00 0.00 59 1003.4
20190424074207 15 178 0.0 0.0 0.00 0.00 0.00 60 1003.4
20190424073721 15 178 0.0 0.0 0.00 0.00 0.00 63 1003.5
20190424073218 14 165 0.0 0.0 0.00 0.00 0.00 65 1003.6
20190424072710 14 158 0.0 0.0 0.00 0.00 0.00 65 1003.7
20190424072220 14 156 0.0 0.0 0.00 0.00 0.00 65 1003.6
20190424071707 14 144 0.0 0.0 0.00 0.00 0.00 63 1003.5
20190424071209 13 144 0.0 0.0 0.00 0.00 0.00 71 1003.5
20190424070715 12 144 0.0 0.0 0.00 0.00 0.00 73 1003.5
20190424070207 12 144 0.0 0.0 0.00 0.00 0.00 72 1003.5
20190424065708 12 144 0.0 0.0 0.00 0.00 0.00 73 1003.5
20190424065210 12 144 0.0 0.0 0.00 0.00 0.00 73 1003.4
20190424064710 12 144 0.0 0.0 0.00 0.00 0.00 74 1003.3
20190424064207 12 144 0.0 0.0 0.00 0.00 0.00 73 1003.2
20190424063710 12 144 0.0 0.0 0.00 0.00 0.00 73 1003.2
20190424063216 12 144 0.0 0.0 0.00 0.00 0.00 74 1003.3
20190424062710 11 144 0.0 0.0 0.00 0.00 0.00 75 1003.2
20190424062233 11 144 0.0 0.0 0.00 0.00 0.00 75 1003.2
20190424061727 11 144 0.0 0.0 0.00 0.00 0.00 75 1003.1
20190424061233 11 144 0.0 0.0 0.00 0.00 0.00 74 1003.1
20190424060737 11 144 0.0 0.0 0.00 0.00 0.00 74 1003.2
20190424060234 11 144 0.0 0.0 0.00 0.00 0.00 74 1003.2
20190424055722 11 144 0.0 0.0 0.00 0.00 0.00 74 1002.9
20190424055236 10 144 0.0 0.0 0.00 0.00 0.00 74 1002.8
20190424054744 10 144 0.0 0.0 0.00 0.00 0.00 75 1002.8
20190424054233 10 144 0.0 0.0 0.00 0.00 0.00 76 1002.7
20190424053734 10 144 0.0 0.0 0.00 0.00 0.00 75 1002.6
20190424053241 10 144 0.0 0.0 0.00 0.00 0.00 74 1002.6
20190424052732 10 144 0.0 0.0 0.00 0.00 0.00 74 1002.5
20190424052239 10 144 0.0 0.0 0.00 0.00 0.00 74 1002.5
20190424051740 10 144 0.0 0.0 0.00 0.00 0.00 74 1002.6
20190424051233 10 144 0.0 0.0 0.00 0.00 0.00 74 1002.5
20190424050736 10 144 0.0 0.0 0.00 0.00 0.00 74 1002.5
20190424050233 10 144 0.0 1.6 0.00 0.00 0.00 74 1002.5
20190424045738 10 144 0.0 1.6 0.00 0.00 0.00 74 1002.5
20190424045219 10 144 0.0 4.8 0.00 0.00 0.00 74 1002.4
20190424044716 10 346 0.0 4.8 0.00 0.00 0.00 74 1002.4
20190424044217 10 355 0.0 6.4 0.00 0.00 0.00 74 1002.5
20190424043715 10 355 0.0 6.4 0.00 0.00 0.00 74 1002.4
20190424043207 10 340 0.0 6.4 0.00 0.00 0.00 73 1002.4
20190424042714 10 118 1.6 6.4 0.00 0.00 0.00 73 1002.5
20190424042219 10 167 0.0 0.0 0.00 0.00 0.00 73 1002.5
20190424041712 10 124 0.0 0.0 0.00 0.00 0.00 73 1002.2